This demonstration page uses our WeatherBlox Daily Observations layout. Learn more.

Left ArrowRight Arrow

Hourly Observations for May 12, 2022

Temp ( °F °C ) Dew Point ( °F °C ) Humidity (%) Winds ( mph kmh ) Pressure ( in mb ) Visibility ( mi km ) Precip ( " mm )
12:53 am 00:53 Mostly Cloudy 52 11.1 31 -0.6 45 45 Calm 30.01 1016 10 16 0.00 0.00
1:53 am 01:53 Mostly Clear 47 8.3 31 -0.6 54 54 ESE 7 11 30.00 1016 10 16 0.00 0.00
2:53 am 02:53 Mostly Clear 45 7.2 32 0 61 61 ENE 10 17 30.00 1016 10 16 0.00 0.00
3:53 am 03:53 Cloudy 44 6.7 32 0 63 63 E 7 11 30.00 1016 10 16 0.00 0.00
4:53 am 04:53 Mostly Cloudy 42 5.6 32 0 68 68 ENE 7 11 30.00 1016 10 16 0.00 0.00
5:53 am 05:53 Mostly Cloudy 41 5 32 0 70 70 E 7 11 30.00 1016 10 16 0.00 0.00
6:53 am 06:53 Sunny 43 6.1 33 0.6 68 68 E 10 17 30.01 1016 10 16 0.00 0.00
7:53 am 07:53 Sunny 47 8.3 35 1.7 63 63 NE 8 13 30.00 1016 10 16 0.00 0.00
8:53 am 08:53 Cloudy 52 11.1 38 3.3 59 59 ENE 10 17 30.01 1016 10 16 0.00 0.00
9:53 am 09:53 Mostly Sunny 56 13.3 39 3.9 53 53 ENE 9 15 30.01 1016 10 16 0.00 0.00
10:53 am 10:53 Cloudy 57 13.9 39 3.9 51 51 E 9 15 29.99 1016 10 16 0.00 0.00
11:53 am 11:53 Cloudy 56 13.3 39 3.9 53 53 E 10 17 30.00 1016 10 16 0.00 0.00
12:53 pm 12:53 Cloudy 53 11.7 41 5 64 64 ESE 15 24 30.01 1016 10 16 0.00 0.00
1:53 pm 13:53 Cloudy with Light Rain 50 10 46 7.8 86 86 E 13 20 30.02 1017 10 16 0.02 0.51
2:53 pm 14:53 Cloudy with Light Rain 50 10 46 7.8 86 86 E 12 19 30.02 1017 10 16 0.03 0.76
3:53 pm 15:53 Cloudy with Light Rain 50 10 47 8.3 89 89 E 12 19 30.01 1016 7 11 0.05 1.27
4:53 pm 16:53 Cloudy with Light Rain 50 10 48 8.9 93 93 E 13 20 29.98 1015 9 14 0.02 0.51
5:53 pm 17:53 Cloudy 52 11.1 47 8.3 83 83 E 7 11 29.96 1015 10 16 0.00 0.00
6:12 pm 18:12 Cloudy 51 10.6 47 8.3 86 86 ENE 8 13 29.94 1014 10 16 0.00 0.00
6:42 pm 18:42 Cloudy 50 10 46 7.8 86 86 E 7 11 29.95 1014 10 16 0.00 0.00
6:53 pm 18:53 Cloudy 50 10 46 7.8 86 86 E 6 9 29.98 1015 10 16 0.00 0.00
7:53 pm 19:53 Cloudy 50 10 47 8.3 89 89 E 8 13 29.98 1015 10 16 0.00 0.00
8:40 pm 20:40 Cloudy 48 9 45 7 87 87 E 6 9 29.97 1015 10 16 0.00 0.00
8:53 pm 20:53 Mostly Cloudy 49 9.4 45 7.2 86 86 E 6 9 29.98 1015 10 16 0.00 0.00
9:05 pm 21:05 Cloudy 49 9.4 45 7.2 86 86 E 6 9 29.97 1015 10 16 0.00 0.00
9:53 pm 21:53 Cloudy 48 8.9 45 7.2 89 89 E 7 11 29.97 1015 10 16 0.00 0.00
10:53 pm 22:53 Cloudy 47 8.3 44 6.7 90 90 E 7 11 29.95 1014 10 16 0.00 0.00
11:53 pm 23:53 Mostly Cloudy 45 7.2 44 6.7 97 97 W 5 7 29.94 1014 10 16 0.00 0.00

Powered by AerisWeather